Location: *
(37.4917°N, 71.5558°E)
Time: 19:59:35
(UTC+00:00)

Cosmos 1378 Rocket - Pass Details

Date: 09 April 2020
Orbit: 601 x 628 km, 82.5° (Epoch: 31 May)

Event Time Altitude Azimuth Distance (km) Brightness Sun altitude
Exits shadow 23:38:36 16° 213° (SSW) 1,620 5.2 -13.7°
Maximum altitude 23:41:49 43° 281° (W) 860 3.9 -13.1°
Drops below altitude 10° 23:46:01 10° 353° (N) 1,983 6.3 -12.3°
Sets 23:48:21 0° 0° (N) 2,898 7.3 -11.8°
